ECMWFFLT1_925_thetae_132.txt.gz
Theta_e
309 308 308 308 309 311 313 314 314 313 313 314 316 318 319 322 324 325 327 327 328 328 328 328 327 327 326 326 326 325 325 325 325 325 325 325 324 324 324 324 323 323 323 323 323 323 323 323 323 323 324 324 323 323 323 323 324 324 324 324 324 324
308 307 307 307 307 309 310 311 312 312 313 313 315 316 318 321 322 324 325 326 327 327 327 328 328 327 327 326 326 325 325 325 325 325 325 325 325 324 324 324 324 324 324 324 324 324 324 324 324 324 325 325 324 325 325 325 325 325 325 325 325 325
304 304 305 305 305 306 308 310 311 312 312 312 313 315 317 319 321 322 324 325 326 327 327 327 328 328 328 327 327 327 326 326 325 325 325 325 325 325 325 325 325 325 325 325 325 325 325 325 325 326 325 326 326 325 326 326 326 326 326 326 326 325
303 302 304 304 305 306 307 309 311 311 312 312 313 313 314 317 318 320 322 323 325 325 326 327 327 327 328 328 328 327 327 327 327 326 326 326 326 326 326 326 326 326 326 326 326 326 326 326 326 327 326 326 327 326 327 327 327 327 327 326 326 326
300 301 303 304 306 307 308 310 311 312 312 312 312 313 313 314 315 317 320 322 324 324 325 326 326 327 327 327 327 328 328 328 328 328 327 327 327 327 327 327 326 327 326 326 327 326 326 326 326 326 326 326 327 327 327 327 327 327 326 326 326 325
302 303 302 303 306 308 309 310 311 312 312 311 312 312 312 313 313 314 316 319 321 322 324 325 325 326 326 326 327 327 327 328 327 328 327 327 327 327 327 327 327 327 327 326 326 326 326 326 326 326 326 326 327 327 327 327 327 327 327 326 326 325
314 308 300 301 306 308 310 311 311 312 312 311 312 312 312 311 311 312 312 314 317 319 321 323 323 324 325 325 326 326 326 327 327 327 327 327 327 327 327 327 326 326 326 326 326 326 326 326 326 326 326 326 326 326 327 327 326 326 326 326 326 326
321 315 302 301 306 308 310 312 312 312 312 312 312 311 311 311 310 310 310 311 313 315 318 320 321 323 324 324 325 325 325 325 326 326 326 326 326 326 326 326 326 326 326 326 326 326 326 326 326 326 326 326 326 326 326 326 326 326 325 326 326 326
326 324 308 301 305 308 309 310 311 311 311 311 311 310 310 310 310 310 310 310 310 312 314 317 320 322 322 323 324 324 324 325 325 325 325 325 325 326 326 326 326 326 326 326 326 326 326 326 326 326 326 326 326 325 325 325 326 326 325 325 325 325
331 329 311 301 304 306 306 308 309 309 310 309 309 308 308 309 309 309 310 309 309 310 310 312 316 319 321 322 323 323 323 324 324 324 324 324 324 325 325 325 325 325 325 326 326 326 326 326 325 325 325 325 326 325 325 325 325 325 325 325 325 324
325 323 310 300 302 304 305 307 309 309 309 308 308 308 307 308 308 308 308 308 309 309 309 309 311 313 316 319 320 322 322 322 322 322 322 322 322 323 323 324 324 324 324 325 325 325 325 325 325 325 325 325 325 325 325 324 325 325 324 324 323 323
315 315 310 301 300 303 304 306 308 308 308 308 308 308 308 308 308 308 308 308 308 308 308 309 309 309 310 312 315 317 319 320 320 320 319 319 320 320 321 322 323 323 323 323 323 324 324 324 324 324 324 324 324 324 324 323 324 324 323 323 322 321
313 316 315 305 300 302 303 305 308 308 308 308 309 309 308 308 308 309 308 308 308 307 307 308 308 308 308 309 310 312 313 314 315 315 315 316 316 316 317 319 320 321 322 322 323 323 323 323 323 323 323 323 323 322 322 322 323 322 322 321 321 320
320 319 314 305 301 303 304 305 307 308 309 309 309 308 308 308 308 309 309 309 309 308 307 307 307 307 308 308 309 309 309 310 310 311 312 313 314 315 316 317 318 319 320 321 322 322 322 321 321 321 321 321 321 321 322 321 321 321 320 320 320 319
317 311 306 302 302 305 308 308 307 308 310 310 309 308 308 307 308 309 309 309 309 308 308 307 307 307 307 307 308 307 308 308 309 311 312 312 314 315 316 317 318 319 320 320 321 321 320 319 319 320 321 321 320 320 321 320 320 320 320 319 319 319
309 305 303 305 306 308 309 309 308 309 310 309 308 308 307 307 307 307 308 309 308 308 308 308 307 307 307 307 306 306 306 306 307 309 310 311 313 314 315 316 317 318 319 319 320 320 319 319 319 319 320 320 320 319 319 318 317 318 318 318 317 318
308 304 306 309 310 310 310 309 309 309 310 309 309 308 307 306 306 306 307 308 308 308 308 308 308 307 306 305 305 304 304 304 305 306 307 308 310 311 312 313 314 316 317 317 318 318 318 318 317 317 317 318 318 318 317 316 316 316 316 316 317 317
309 307 309 312 313 311 310 310 309 308 308 309 308 307 306 305 305 305 306 307 308 308 307 308 308 306 304 304 303 303 303 303 303 304 304 305 306 306 308 310 311 313 315 315 315 315 316 316 315 315 316 316 316 317 317 316 316 316 315 315 316 316
311 310 311 312 312 311 310 310 309 308 307 307 306 305 305 304 304 305 306 307 308 309 307 307 307 305 304 303 302 302 302 302 302 302 303 304 304 305 307 308 309 311 312 312 312 312 313 313 314 314 314 314 314 315 315 315 314 314 314 314 314 313
312 312 311 311 310 311 311 310 309 307 306 305 305 304 303 302 303 305 306 308 309 309 308 306 306 305 304 302 302 302 301 301 301 302 303 304 305 305 306 307 308 309 309 310 311 312 312 312 312 312 312 313 313 314 314 314 313 313 312 311 309 308
312 311 311 309 310 312 313 310 308 306 304 304 304 303 301 301 303 305 306 309 310 309 307 306 305 305 304 303 302 301 300 299 300 301 302 304 304 305 305 306 307 308 309 310 311 312 312 312 312 312 312 312 312 312 313 313 312 310 309 307 306 305
309 308 308 308 309 312 312 309 306 304 303 303 303 302 301 303 305 307 308 308 308 307 306 305 305 305 304 304 302 300 299 299 299 300 301 303 304 305 306 307 308 308 309 310 310 311 311 312 312 312 311 310 310 311 311 310 309 308 307 306 305 305
307 307 307 308 310 310 310 308 305 304 303 302 301 301 303 306 307 308 308 307 305 305 305 305 305 305 304 303 301 300 299 299 299 299 300 301 303 304 306 307 308 308 309 309 310 310 311 311 311 310 309 309 308 309 309 308 308 307 307 306 305 305
306 306 307 309 310 310 309 307 305 304 304 302 301 304 306 306 307 307 307 305 304 304 304 304 304 304 303 302 300 299 299 299 299 299 299 300 301 303 304 305 306 306 307 307 308 309 310 310 310 309 308 307 306 306 306 306 307 306 306 305 304 304
305 305 307 308 308 308 308 307 304 304 303 301 304 307 307 306 306 306 305 303 303 303 303 303 304 303 301 301 300 299 298 298 299 300 300 300 300 301 303 304 304 304 304 304 306 307 308 308 307 306 307 307 305 304 304 305 305 305 306 305 304 304
304 304 305 306 307 307 307 306 304 303 302 304 307 308 306 305 305 304 303 302 302 302 302 302 302 301 300 300 299 298 298 298 299 300 301 301 300 300 300 301 301 300 300 300 301 303 304 304 304 304 305 305 304 303 303 303 303 303 304 303 303 302
303 303 303 304 305 306 306 305 304 302 302 305 307 306 305 305 304 302 302 302 301 301 301 301 300 299 299 298 298 297 297 298 299 299 300 300 300 299 299 298 298 297 298 298 298 299 301 302 302 302 302 303 303 302 301 300 301 301 300 300 300 300
302 301 301 302 304 304 305 305 304 302 303 306 306 305 304 304 302 301 301 301 300 300 300 299 298 297 297 297 297 297 297 298 298 298 298 298 298 298 298 297 296 296 296 297 297 297 299 300 300 300 300 301 300 299 299 299 299 298 298 298 298 298
300 300 300 301 303 303 304 304 303 303 304 305 304 304 303 302 301 301 300 300 300 299 298 297 296 296 296 297 297 297 297 297 298 297 297 296 297 297 297 297 296 296 296 296 296 295 296 296 297 298 298 298 298 297 297 297 296 296 296 296 295 295
300 300 299 300 302 303 303 303 303 303 303 303 303 302 301 300 300 300 299 299 299 298 297 296 296 296 296 296 296 296 296 297 297 297 297 298 298 297 297 297 297 296 297 296 295 294 293 292 294 296 298 298 298 297 296 295 295 295 295 295 294 293
299 299 299 300 301 302 302 302 302 302 302 302 302 301 300 299 299 299 299 298 297 296 296 295 295 295 295 295 295 296 296 296 297 297 298 298 298 298 299 298 298 297 297 297 297 296 293 292 294 299 302 302 302 301 299 298 297 296 295 294 293 292
299 299 299 300 301 301 301 301 302 302 302 301 301 300 299 299 298 297 297 297 296 296 295 295 295 295 295 295 295 295 296 296 297 297 298 298 298 299 299 299 299 300 300 300 301 301 300 300 303 306 305 304 304 303 301 300 299 297 295 293 292 290
299 299 299 300 301 301 301 301 301 301 301 301 300 299 299 298 297 296 296 296 295 295 295 295 295 295 295 295 295 295 295 295 295 296 297 298 298 299 299 300 301 302 303 304 304 304 303 304 307 307 305 303 302 301 299 298 297 295 294 292 290 289
299 299 300 300 301 301 300 300 300 301 301 300 299 299 298 298 297 296 296 296 296 295 295 294 295 295 294 295 295 295 295 294 294 294 295 296 297 299 300 301 301 302 303 303 303 304 303 303 303 303 303 301 300 298 296 296 295 293 292 291 289 288
300 300 300 300 300 300 300 299 300 300 300 299 299 298 297 297 297 297 297 296 296 295 294 294 295 295 294 295 295 295 295 295 294 293 292 293 294 296 297 298 299 299 300 301 301 302 302 302 301 301 301 299 298 296 294 293 293 292 290 289 287 286
300 300 300 300 300 300 299 299 300 300 299 298 298 297 297 297 297 296 297 297 296 295 294 294 294 294 295 295 295 295 295 295 295 294 292 290 290 291 292 294 295 296 297 298 299 299 299 299 299 300 300 298 296 294 293 292 290 289 288 288 287 286
300 300 300 299 299 299 298 299 300 300 298 297 297 297 296 296 296 296 296 297 297 296 295 294 295 295 295 295 295 295 295 294 294 294 293 291 290 290 290 290 291 293 294 295 297 297 297 297 297 297 297 296 294 292 291 289 288 287 286 286 286 286
299 299 299 299 298 297 297 299 300 299 296 296 296 296 295 295 295 295 295 296 296 296 295 295 295 295 295 295 295 294 294 294 294 294 293 292 291 291 290 289 289 290 291 293 294 296 296 296 295 295 295 294 293 292 290 288 287 286 285 284 284 284

ECMWFFLT1_925_thetae_138.txt.gz
Theta_e
317 316 315 314 314 313 311 311 311 311 311 311 311 312 312 312 313 314 315 317 320 321 322 323 324 325 325 325 325 326 326 326 326 326 326 326 326 326 325 325 325 324 324 324 324 324 324 324 324 324 324 324 323 323 323 323 323 323 322 322 322 322
315 314 314 313 312 311 310 310 310 310 310 310 310 311 311 311 312 313 314 316 318 319 321 323 324 324 325 325 325 325 326 325 326 326 326 326 326 325 325 325 325 324 324 324 324 324 324 324 324 324 324 324 323 323 323 323 323 323 322 322 322 321
314 313 312 310 309 309 309 309 309 309 309 308 309 309 309 309 311 312 314 316 318 319 321 323 324 324 324 325 325 325 325 325 325 326 325 326 326 325 325 325 325 324 324 324 324 323 324 324 324 324 323 323 323 323 323 323 323 322 322 322 322 321
314 313 310 308 307 307 308 307 307 308 308 308 308 308 308 309 311 312 313 315 316 317 319 322 323 324 324 324 325 325 325 325 325 325 325 325 325 325 325 325 324 324 324 324 323 323 323 323 323 323 323 323 323 323 323 323 322 322 322 322 321 321
313 311 309 307 307 307 307 307 307 307 308 309 309 308 308 309 310 311 312 313 315 316 318 320 322 323 324 324 324 324 325 325 325 325 325 325 325 325 325 325 324 324 324 323 323 323 323 323 323 323 323 323 323 322 322 322 322 322 322 321 321 321
311 310 310 310 308 308 307 306 307 308 308 308 309 309 309 309 310 311 312 312 313 315 316 318 319 321 322 323 323 324 324 325 325 325 325 325 325 325 324 324 324 324 323 323 323 323 322 322 323 323 323 323 323 322 322 322 322 322 322 322 322 321
310 311 311 310 308 307 307 307 307 308 308 308 308 309 310 310 311 312 312 312 312 313 314 315 317 318 319 320 321 322 323 324 325 325 325 325 325 324 324 324 324 323 323 323 323 322 322 322 322 322 322 322 322 322 322 322 322 322 322 322 322 322
312 313 311 309 308 306 307 308 308 308 309 310 310 310 310 311 311 311 311 311 312 312 313 313 314 315 315 316 318 319 320 322 323 324 324 324 324 324 324 324 323 323 323 323 323 322 322 322 322 322 322 322 322 322 322 322 322 322 322 322 322 322
312 312 312 311 311 309 307 307 308 309 310 310 311 310 311 311 311 311 311 311 311 311 311 312 312 312 312 313 314 314 316 318 320 322 322 322 322 323 323 323 323 323 322 322 322 322 322 322 322 322 322 322 322 322 322 322 322 323 323 323 323 323
312 312 313 313 313 312 310 309 309 310 311 312 311 310 310 310 310 310 310 310 310 310 310 310 310 310 310 310 310 311 311 312 315 318 319 320 321 321 321 322 322 322 322 322 323 323 323 323 323 322 322 323 323 323 323 323 323 323 323 323 323 323
315 314 314 312 312 313 312 312 312 311 312 313 312 310 309 308 307 307 308 308 309 309 309 309 309 308 308 309 309 309 309 309 311 313 315 317 318 319 320 321 321 322 322 322 322 322 323 323 323 323 323 323 323 323 323 323 323 323 323 323 323 323
318 317 315 312 311 311 311 312 313 312 312 312 312 310 309 307 306 306 305 306 307 307 307 307 307 307 307 307 308 308 308 308 308 309 311 313 315 316 317 318 320 321 321 321 321 322 322 322 323 323 323 324 323 323 323 323 323 323 323 322 322 322
318 318 317 315 312 310 310 310 311 312 312 312 312 310 308 307 307 307 306 306 307 307 306 306 306 306 306 307 308 308 307 306 307 307 308 310 311 312 314 315 317 319 320 320 321 321 321 322 322 323 323 323 324 323 323 323 323 323 322 322 323 322
317 318 317 316 314 311 310 309 310 310 311 311 310 308 307 307 307 308 308 308 308 309 308 308 307 307 307 308 308 308 306 305 305 306 306 307 308 309 311 313 314 316 318 319 319 320 320 321 321 322 322 323 323 323 323 323 322 322 322 322 322 322
317 316 315 314 313 311 309 309 309 309 309 309 308 307 307 307 307 307 308 309 309 310 310 309 308 308 308 308 308 307 305 304 305 305 305 306 306 307 308 310 312 314 315 317 318 318 319 320 320 321 322 322 323 323 323 322 322 321 321 321 321 322
316 315 314 312 310 310 309 309 308 308 307 307 307 307 307 306 306 307 307 308 309 309 308 308 307 307 307 307 307 306 305 304 304 305 305 304 305 305 306 308 309 311 313 314 316 317 318 318 319 320 320 321 322 322 322 322 321 320 320 320 321 321
315 313 312 310 309 309 309 308 307 307 307 306 306 306 305 305 305 306 306 307 308 308 307 306 306 306 306 306 305 305 304 304 304 304 304 303 303 303 304 306 307 308 310 312 313 315 315 316 317 318 319 319 320 321 321 321 320 320 320 320 320 321
312 310 309 308 308 307 307 307 306 306 306 306 305 305 305 304 304 305 305 306 306 306 306 305 305 305 305 305 304 304 303 304 304 303 303 302 301 302 303 304 305 306 307 309 310 312 313 314 314 315 316 317 318 319 320 320 319 319 319 319 319 319
308 307 307 306 306 306 306 306 305 306 306 306 306 306 305 305 304 305 305 305 305 305 305 304 304 304 304 304 303 303 303 304 303 303 302 301 300 301 301 302 304 304 305 306 307 308 309 310 310 312 313 315 317 318 318 319 318 317 317 317 318 318
306 306 306 305 305 305 305 305 305 305 305 305 305 305 305 305 304 305 305 305 305 305 304 304 304 304 304 303 303 303 303 303 303 302 302 301 300 301 301 302 302 303 304 305 306 307 308 308 309 310 312 313 315 316 317 317 317 315 315 315 315 316
305 305 304 304 304 304 304 304 304 304 304 304 304 304 303 304 304 304 304 304 304 304 304 304 304 303 303 303 303 303 303 303 303 302 302 301 300 300 300 301 301 302 304 305 306 307 308 309 309 311 312 313 314 315 315 316 315 314 314 314 314 314
304 304 303 303 303 303 303 303 303 303 303 303 302 302 303 303 303 303 303 303 303 303 303 303 303 303 303 303 303 303 302 302 302 302 301 301 300 300 300 300 300 301 302 303 304 306 307 308 309 310 311 313 314 315 315 315 314 314 314 313 312 312
302 303 302 302 302 302 302 302 302 302 302 302 301 302 302 302 302 302 302 302 303 303 303 303 302 302 302 302 302 302 302 301 301 301 301 301 300 299 299 299 299 300 300 301 302 303 304 306 307 308 310 311 313 315 315 315 313 313 313 312 310 310
301 301 301 301 301 301 301 301 301 301 301 301 301 302 302 302 302 302 302 302 302 302 302 302 302 302 302 302 301 301 301 301 300 300 300 300 299 298 298 298 299 299 299 299 300 300 301 302 303 305 306 308 310 313 314 314 313 313 313 311 309 309
299 300 300 300 301 301 300 299 300 300 300 300 301 301 301 301 302 301 301 301 301 301 301 301 301 301 301 301 301 300 300 300 300 299 299 298 298 297 297 297 297 298 298 298 299 299 300 300 301 302 304 305 307 310 312 313 313 313 312 311 309 309
298 299 299 299 300 300 299 299 299 299 299 300 300 301 301 301 301 301 301 300 300 300 300 300 300 300 300 300 300 299 299 299 299 298 298 297 296 296 296 297 297 297 297 297 298 299 299 300 300 301 303 305 306 308 310 311 310 310 310 310 310 309
298 298 298 298 299 299 299 298 298 298 298 299 300 300 300 301 301 301 300 300 300 299 299 299 299 300 300 300 300 299 299 299 298 297 297 296 296 296 296 296 297 297 297 297 298 298 299 299 299 300 301 303 305 306 307 307 308 308 309 309 309 309
297 297 297 298 298 298 298 298 298 298 298 299 299 299 300 300 300 300 300 299 299 299 298 298 299 299 299 299 299 299 298 298 298 297 297 296 296 296 296 296 296 297 297 297 297 298 298 299 299 298 299 301 303 304 305 306 307 307 307 307 308 309
296 296 297 297 298 298 298 298 298 298 298 298 299 299 299 299 299 299 299 299 299 298 298 298 298 298 299 299 298 298 298 297 297 297 296 296 296 296 296 296 296 296 297 297 297 297 298 299 299 298 297 299 303 305 305 305 305 304 304 304 305 305
296 296 296 297 297 297 297 297 297 297 297 298 298 298 298 298 298 298 298 298 298 298 297 297 297 298 298 298 298 297 297 297 297 296 297 297 297 296 296 296 296 297 297 297 297 297 298 299 298 297 297 299 301 303 304 303 302 302 301 301 300 300
296 296 296 296 297 297 297 297 297 297 297 298 298 298 298 297 297 297 297 297 297 297 297 297 297 297 298 298 297 297 297 297 297 297 297 297 297 297 297 297 297 297 297 297 297 297 298 298 298 298 298 298 299 300 301 301 301 300 300 299 298 298
296 296 296 296 296 296 296 297 297 297 297 297 298 297 297 297 297 297 297 297 297 297 297 297 297 297 297 297 297 297 297 297 297 297 297 297 297 297 297 297 297 298 298 298 298 298 298 299 299 298 298 297 298 299 300 300 300 300 299 297 297 297
295 295 295 296 296 296 296 296 297 297 297 297 297 297 297 297 296 296 296 297 297 297 297 297 297 297 297 297 296 296 296 296 297 297 297 297 297 297 297 297 297 297 297 297 298 298 298 298 298 298 298 297 297 297 299 299 299 299 298 297 297 296
295 295 295 296 296 296 296 296 297 297 297 297 296 296 296 296 296 296 296 296 297 297 296 296 296 296 296 296 296 296 295 295 296 296 296 296 296 297 296 296 296 296 296 297 297 297 297 297 297 297 297 297 297 297 298 298 299 298 298 298 297 295
295 295 295 295 295 295 296 296 296 296 296 296 296 296 296 296 296 296 296 296 296 296 296 296 296 296 296 296 296 296 296 296 296 296 296 296 296 296 296 296 296 295 295 295 296 296 296 296 297 297 297 297 297 297 297 297 298 298 297 295 294 295
295 295 295 295 295 295 295 295 296 296 295 295 295 295 295 295 296 295 295 296 295 295 295 295 295 295 295 295 295 296 296 296 296 296 296 296 296 296 295 295 295 295 295 295 295 295 296 296 296 296 297 297 297 298 298 297 296 296 295 294 293 294
294 294 294 294 295 295 295 295 295 295 295 295 295 295 295 295 295 295 295 295 295 294 294 294 294 294 294 295 295 295 295 295 295 296 295 295 296 296 296 295 295 295 295 294 294 295 295 296 296 296 297 297 297 298 298 296 293 293 293 292 292 294
294 294 294 294 294 294 294 294 294 294 294 294 294 294 294 294 294 294 294 294 294 294 294 293 293 294 294 294 294 294 295 295 295 295 295 295 295 295 295 296 295 295 295 294 294 294 295 295 296 296 297 297 298 298 296 294 292 292 292 291 291 293

ECMWFFLT1_925_thetae_141.txt.gz
Theta_e
320 319 319 320 319 319 318 317 316 315 315 315 315 316 316 317 318 319 321 322 323 325 327 328 328 328 328 328 328 328 328 328 329 329 329 329 329 328 328 328 328 328 328 327 327 327 327 326 326 326 326 326 325 325 325 324 324 324 325 324 324 324
318 318 318 318 316 314 313 313 312 313 313 314 313 313 314 315 316 318 319 321 322 324 325 327 328 328 328 328 328 328 328 328 328 329 329 329 329 328 328 328 328 328 328 327 327 327 327 327 326 326 326 326 326 325 325 325 324 324 324 324 324 323
317 317 317 316 313 312 312 311 311 311 311 312 312 312 312 313 314 315 317 319 321 323 325 327 327 328 328 328 328 328 328 328 328 328 329 328 328 328 328 328 328 328 328 327 327 327 326 326 326 326 326 326 326 325 325 325 324 324 324 324 324 323
317 316 315 314 313 313 312 312 311 311 311 311 310 310 311 312 312 313 315 318 320 323 324 326 327 327 328 328 328 328 328 328 328 328 328 328 328 328 328 328 328 328 327 327 327 326 326 326 326 326 326 326 326 325 325 325 324 324 324 324 324 324
316 315 314 315 315 314 313 312 311 311 311 310 310 310 310 311 311 312 315 317 320 322 323 324 325 326 327 328 328 328 328 328 328 327 327 327 327 327 327 328 327 328 327 327 327 326 326 326 326 326 326 326 325 325 325 325 324 324 324 324 324 324
315 315 316 317 316 315 314 313 311 310 310 310 310 310 310 310 310 310 312 315 317 319 321 322 322 324 325 326 327 327 327 327 327 327 326 327 327 326 327 327 327 327 327 326 326 326 326 325 326 325 325 326 326 325 325 324 324 324 324 324 324 323
315 316 317 318 317 316 315 313 311 310 310 311 311 310 309 309 310 309 310 311 312 314 316 319 321 322 323 325 326 325 325 326 325 325 325 325 325 325 325 326 326 326 326 326 326 326 325 325 325 325 325 325 325 325 325 324 324 324 324 324 324 323
315 316 317 318 318 317 316 314 312 311 311 311 312 311 310 308 309 309 309 310 310 311 312 314 317 319 320 321 322 322 323 324 324 324 324 324 323 323 323 324 325 325 325 325 325 325 325 324 324 324 325 324 324 325 324 324 324 324 324 323 323 323
318 317 317 317 318 318 316 314 313 312 312 311 311 311 310 308 308 308 309 310 310 310 311 312 313 314 314 314 315 315 317 319 321 322 322 321 322 321 321 321 323 324 324 324 324 324 324 324 324 324 324 324 324 324 324 324 324 323 323 323 323 323
321 320 320 319 318 317 316 314 314 313 313 312 312 311 310 308 308 308 308 308 309 309 310 310 310 310 310 310 310 310 311 312 315 317 317 317 318 319 318 319 320 321 322 323 323 323 323 323 323 323 324 324 323 323 323 323 323 323 323 323 323 323
322 321 321 321 319 317 315 314 314 314 314 313 312 310 309 308 308 308 307 307 308 308 308 308 308 308 308 308 308 308 308 308 310 310 311 312 312 313 313 315 317 319 320 321 321 321 322 322 322 322 322 323 323 323 323 323 323 323 322 322 322 322
321 320 321 320 319 316 314 314 314 313 313 313 312 310 308 307 307 307 307 307 307 307 307 306 306 306 306 306 306 306 306 306 307 307 307 307 308 308 309 310 313 315 316 318 319 320 320 320 321 321 321 322 322 322 322 322 322 322 322 322 322 322
319 319 320 318 316 315 314 314 313 312 312 311 311 309 307 307 307 307 306 307 307 307 306 306 306 306 306 306 306 307 307 307 306 306 306 306 306 307 307 307 309 310 312 314 316 317 318 319 319 320 320 321 321 322 322 322 322 322 322 322 321 321
319 319 318 316 314 314 314 313 311 311 310 310 309 308 307 307 307 307 307 307 306 306 306 306 306 306 306 306 307 307 306 306 306 307 307 307 307 307 306 306 306 307 308 310 312 314 316 317 317 318 319 320 321 321 321 322 321 321 321 321 321 321
318 318 316 315 314 312 311 310 310 309 309 308 307 307 307 307 307 307 306 306 306 306 306 306 306 306 306 306 306 305 305 305 306 306 306 306 306 306 305 305 305 305 306 307 309 310 312 314 315 316 317 318 319 320 321 321 321 321 321 321 321 321
317 316 314 312 311 310 309 308 308 307 307 306 306 306 306 306 306 306 306 305 305 305 305 305 305 305 305 305 305 305 305 305 305 305 305 305 304 304 304 305 305 305 305 305 306 307 309 310 312 313 315 316 317 318 319 320 320 320 320 320 321 321
314 313 311 310 309 309 309 308 306 305 306 306 305 305 305 305 305 305 305 305 305 305 305 305 304 304 305 305 305 304 304 304 304 305 304 304 304 303 303 303 303 304 304 303 304 305 306 307 308 310 312 313 315 316 318 318 319 319 319 319 319 320
311 310 308 307 307 308 308 306 304 304 304 304 304 304 304 304 304 305 305 305 305 305 305 304 304 304 304 304 304 304 304 304 304 304 304 304 303 303 302 302 303 303 303 302 302 303 304 305 306 307 308 310 312 314 315 316 317 317 317 317 318 318
308 307 306 305 307 307 305 303 302 302 302 303 303 303 303 304 304 305 305 305 305 305 304 304 304 303 303 303 303 303 303 304 304 304 304 303 303 303 302 302 302 302 302 301 301 301 303 304 305 306 306 307 309 311 313 314 315 315 315 316 316 317
305 304 304 304 305 305 303 302 301 301 302 302 303 302 302 303 304 304 304 304 304 303 303 303 303 303 302 302 302 302 302 303 303 303 303 302 302 302 302 302 301 301 301 301 301 301 301 303 304 305 305 305 306 308 310 311 312 312 313 313 314 315
301 302 302 303 303 302 302 301 300 300 301 302 302 302 302 303 303 303 303 302 302 302 302 302 302 302 302 301 301 301 301 301 301 301 301 301 301 302 302 301 301 301 301 300 300 301 300 301 303 303 303 304 304 305 306 308 309 309 310 311 312 312
301 301 301 301 300 300 301 301 300 300 300 301 301 301 302 302 302 302 302 301 301 301 301 301 301 301 300 300 300 300 300 300 300 300 300 300 300 301 301 301 300 300 300 300 300 300 300 300 301 301 302 303 303 304 305 307 308 308 309 309 310 310
301 300 300 299 299 299 300 300 300 300 300 300 300 301 301 301 301 301 301 301 301 300 300 300 300 300 300 300 299 299 299 299 299 299 299 299 299 299 299 299 299 299 300 299 299 299 300 300 300 301 301 301 302 304 305 307 308 309 309 309 309 309
300 300 299 299 298 298 299 299 299 299 299 299 300 300 299 300 300 300 300 300 300 300 299 299 299 299 299 299 299 299 299 299 299 299 299 298 298 298 298 298 298 298 298 298 298 298 299 299 299 300 300 300 301 302 304 306 308 309 309 309 309 309
299 299 299 298 298 297 298 299 299 299 299 299 299 299 299 299 299 299 299 299 299 299 299 299 299 298 298 298 298 298 298 299 299 299 299 298 298 297 297 297 297 297 297 297 297 298 298 298 298 299 299 299 299 300 301 304 306 308 309 309 309 309
298 298 298 298 297 297 298 298 298 298 298 298 298 298 298 298 299 299 299 298 298 298 298 298 298 298 298 298 298 298 298 298 298 298 298 298 297 297 297 297 297 297 297 297 297 298 298 299 299 299 299 299 299 298 299 300 302 305 307 308 308 309
297 297 297 297 297 297 297 297 298 298 297 298 298 298 298 298 298 298 298 298 297 297 297 298 298 298 298 298 298 298 297 298 298 297 297 297 297 297 297 297 297 298 298 298 298 299 299 299 299 299 299 299 299 299 299 298 299 301 303 305 306 307
296 296 296 296 296 296 297 297 297 297 297 297 297 297 298 298 298 297 297 297 297 297 297 297 297 298 298 298 298 298 298 298 298 297 297 297 297 297 297 297 297 298 298 298 298 298 298 299 299 299 299 299 299 299 299 298 299 299 301 303 304 305
296 296 295 296 296 296 296 296 297 297 297 297 297 297 297 297 297 297 297 296 296 296 296 296 297 297 297 298 298 298 298 298 298 297 297 297 297 297 298 298 298 298 298 298 298 298 298 298 298 299 299 299 299 299 298 298 298 299 300 302 303 303
295 295 295 295 295 295 296 296 296 296 296 296 297 297 297 297 297 296 296 296 296 296 296 296 297 297 297 297 297 298 298 298 298 297 297 297 297 297 298 298 298 298 298 298 298 298 298 298 299 299 299 299 299 299 298 298 297 298 298 299 301 301
294 294 294 294 295 295 295 295 296 296 296 296 296 297 297 297 296 296 295 295 295 296 296 296 297 297 297 297 297 297 297 297 297 297 297 297 297 297 297 297 298 298 298 298 298 298 298 298 299 299 299 299 299 299 299 298 297 297 297 298 299 300
294 294 294 294 294 294 295 295 295 295 295 296 296 296 296 296 296 295 295 295 295 295 296 296 296 297 297 296 297 297 297 297 297 297 297 297 297 297 297 297 297 298 298 297 298 298 298 298 298 299 299 299 299 299 299 298 298 297 298 298 299 299
293 294 294 294 294 294 294 295 295 295 295 295 296 296 296 295 295 294 294 295 295 295 295 295 296 296 296 296 296 296 296 296 297 297 297 297 297 297 297 297 297 297 297 297 297 297 297 297 298 298 298 298 298 298 298 298 298 297 297 298 298 297
293 293 293 293 294 294 294 294 295 295 295 295 295 295 295 295 294 294 294 294 294 294 295 295 295 295 295 296 296 296 296 296 296 297 297 297 297 297 297 297 297 297 297 297 297 297 297 297 297 297 297 297 297 297 297 297 297 297 297 298 297 296
293 293 293 293 294 294 294 294 294 294 294 295 295 295 294 294 293 293 293 293 293 294 294 294 295 295 295 295 295 295 295 296 296 296 296 297 297 297 297 297 297 297 297 297 297 297 297 297 297 296 296 296 296 296 297 297 297 297 297 297 296 295
292 293 293 293 293 293 293 293 293 294 294 294 294 293 293 292 292 292 292 293 293 293 293 294 294 294 294 294 294 294 295 295 295 295 295 295 296 296 296 297 297 297 297 297 297 297 297 296 296 296 296 296 295 295 296 296 296 297 296 296 295 294
292 292 292 293 293 293 293 293 293 293 293 293 293 292 292 291 291 292 292 292 292 293 293 293 293 293 293 293 294 294 294 294 294 295 295 295 295 295 296 296 296 296 296 296 296 296 296 296 296 296 296 296 295 295 295 295 295 295 295 295 294 294
290 291 291 292 292 292 292 292 293 293 293 292 291 291 291 291 291 291 292 292 292 292 292 292 292 292 292 292 292 293 293 293 293 294 294 294 294 294 295 295 296 296 296 296 296 296 296 296 296 295 295 295 294 294 294 294 294 294 294 294 294 294

ECMWFFLT1_925_thetae_144.txt.gz
Theta_e
319 318 318 317 316 315 314 313 313 313 314 314 315 316 316 316 316 317 318 318 319 321 324 326 327 327 328 328 327 327 327 327 328 327 328 328 328 329 329 329 329 329 329 329 328 328 327 327 327 326 326 326 325 325 325 326 326 326 325 325 325 325
317 316 317 315 314 314 313 312 312 311 311 311 312 313 314 314 315 315 317 318 319 321 322 324 325 326 327 327 327 327 327 327 327 327 327 327 327 328 328 328 328 328 329 329 328 328 328 327 327 327 326 326 326 326 325 325 325 325 325 325 325 325
316 315 315 314 315 315 314 313 312 312 312 311 311 311 312 312 313 313 314 316 318 320 321 322 324 325 326 327 327 327 327 327 327 327 327 327 327 327 328 328 328 328 328 328 328 328 328 327 327 327 327 326 326 326 325 325 325 325 325 325 324 324
316 314 314 314 316 316 315 313 312 311 312 311 311 311 311 311 312 312 313 314 315 317 320 321 322 324 326 326 327 327 327 327 327 327 326 327 327 327 327 327 327 328 328 328 328 328 328 327 327 327 327 326 326 326 326 326 325 325 325 325 324 324
313 314 314 315 317 316 316 314 312 311 311 311 311 311 310 310 311 312 312 313 315 316 318 320 322 324 325 326 326 326 326 326 326 326 326 326 326 326 327 327 327 327 327 328 327 327 327 327 327 327 327 327 326 326 326 326 325 325 325 324 324 324
313 315 315 316 317 317 316 314 313 312 311 311 312 311 310 310 310 311 311 313 315 316 318 320 322 324 325 325 326 326 326 326 326 326 326 326 326 326 326 326 326 327 327 327 327 327 327 327 327 327 327 326 326 326 326 325 325 325 325 324 324 324
320 317 315 317 317 317 317 314 313 313 312 311 311 311 310 309 308 309 310 311 313 314 315 317 320 322 323 324 325 325 326 326 326 326 326 326 326 325 325 326 326 326 327 327 327 327 327 327 327 327 326 326 326 326 326 325 325 325 325 325 324 324
325 318 314 316 317 317 317 314 313 314 313 312 312 311 310 308 307 308 308 309 310 311 312 314 316 319 320 322 323 324 325 325 325 326 325 325 325 325 325 325 325 326 326 326 326 326 327 327 326 326 326 326 326 326 325 325 325 325 325 325 324 324
329 321 315 316 318 317 315 314 314 314 313 313 312 311 309 308 307 307 307 307 308 308 309 310 312 314 316 318 320 321 322 323 324 324 325 325 326 325 325 326 325 325 325 324 324 325 325 325 326 326 325 325 325 325 325 325 325 324 324 324 324 324
332 327 318 317 318 316 314 313 314 313 313 313 313 311 309 309 309 308 308 308 308 307 308 308 308 309 311 313 315 316 317 319 320 321 322 323 324 324 325 324 324 324 323 323 323 323 324 324 325 324 325 325 325 324 324 324 324 324 324 324 324 324
333 329 320 318 318 315 313 314 313 312 312 312 312 311 309 309 310 309 309 309 308 309 309 308 308 308 308 309 309 310 310 311 312 312 314 315 316 316 317 319 321 322 322 322 322 322 323 323 324 324 324 324 324 324 324 323 323 323 323 323 323 323
329 325 319 316 315 314 314 314 312 312 311 311 311 310 308 309 309 309 308 308 308 308 308 308 309 309 309 309 308 308 308 307 307 307 307 307 308 308 309 310 312 314 315 316 317 317 319 320 321 322 323 323 323 323 323 323 323 323 322 322 322 322
325 325 321 315 313 313 313 312 311 311 310 310 309 308 307 307 307 307 307 307 307 307 307 307 308 308 308 308 308 308 307 307 307 307 307 307 307 307 306 306 306 307 307 308 308 310 311 313 314 316 317 319 320 320 321 321 321 321 321 321 321 321
325 327 322 314 312 311 310 310 309 309 308 308 307 306 306 306 306 307 307 306 306 306 306 306 306 306 306 306 306 306 306 306 306 306 307 307 306 306 305 305 305 305 305 305 305 306 306 307 308 310 312 314 316 317 317 318 318 319 319 320 319 320
322 319 314 311 310 309 308 308 307 307 307 306 305 305 305 306 306 306 306 306 306 306 306 305 305 305 305 305 304 304 304 304 304 305 305 305 305 305 305 305 305 304 304 304 304 305 305 305 306 307 308 310 313 315 316 317 317 318 318 319 319 319
314 310 309 309 309 307 306 305 305 305 306 305 304 304 304 304 305 305 306 306 305 305 305 305 304 304 304 303 303 303 303 303 303 303 303 303 303 303 304 304 304 303 304 303 304 304 304 304 305 305 306 307 309 311 313 315 316 317 317 317 318 318
308 307 307 307 308 307 304 302 302 302 303 304 304 303 303 304 304 305 305 305 304 304 303 303 303 303 302 302 302 302 302 302 302 302 302 302 302 302 303 303 303 303 302 302 302 303 303 303 304 304 304 305 305 307 310 312 313 314 315 316 316 317
306 306 306 307 308 306 302 300 300 300 301 302 302 302 303 303 303 303 303 303 302 302 302 302 302 301 301 301 301 301 301 301 301 301 300 301 301 301 301 302 302 302 301 302 301 301 302 302 302 303 303 303 303 304 306 308 310 311 312 313 314 315
305 304 305 307 307 304 301 300 300 300 301 301 301 301 302 302 302 302 302 301 301 301 301 301 301 301 301 300 300 300 300 300 300 300 300 300 300 301 301 301 301 301 301 301 301 300 301 301 301 301 302 301 301 301 303 304 306 308 309 310 311 312
303 303 304 305 305 302 301 301 300 300 300 300 300 301 301 301 301 301 301 301 300 300 300 300 300 300 300 299 299 299 300 300 300 300 299 299 300 301 301 301 301 302 301 300 300 300 300 300 300 300 300 301 300 300 301 302 304 305 306 307 308 309
301 302 302 302 302 301 300 300 300 300 299 300 300 300 300 300 300 300 300 300 300 300 299 299 299 299 299 299 299 299 299 299 300 300 299 299 299 300 300 300 300 301 301 300 300 300 300 300 300 299 299 300 300 299 299 300 302 304 304 305 306 306
300 300 300 299 299 299 299 300 300 299 299 299 299 300 299 299 299 299 299 299 299 299 299 298 298 298 298 299 299 299 299 299 299 299 299 299 299 299 299 299 299 299 300 300 300 300 299 299 300 299 299 298 299 299 298 299 301 302 302 303 304 304
299 299 299 299 298 298 298 299 299 299 299 299 298 299 299 298 298 299 299 299 298 298 298 298 298 298 298 299 298 298 299 299 299 298 298 299 299 299 299 299 298 299 300 301 300 300 300 299 299 299 299 299 299 299 299 299 299 300 301 301 302 302
298 297 297 298 297 297 297 297 298 298 298 298 298 298 298 298 298 298 298 298 298 297 298 298 297 298 298 299 299 298 299 299 298 298 298 298 298 298 298 298 298 298 299 300 300 300 300 300 299 299 299 299 299 299 299 299 299 299 299 300 301 301
297 296 296 296 296 296 296 297 297 297 298 298 297 297 297 297 297 297 297 297 297 297 297 297 296 297 297 298 298 298 298 298 298 298 298 297 297 297 297 297 297 297 298 299 299 300 300 300 299 299 299 299 299 299 299 299 299 299 298 299 299 300
296 296 296 296 295 295 296 296 297 297 297 297 297 297 297 297 297 297 297 297 297 296 296 296 296 296 297 297 297 297 298 298 298 298 298 298 297 297 297 297 297 297 297 297 298 299 299 299 299 299 299 299 299 299 299 299 299 299 299 298 298 299
295 295 295 295 295 295 295 295 296 297 297 297 297 296 296 297 297 297 297 297 296 296 295 295 295 295 296 296 297 297 297 297 297 297 297 297 297 297 297 297 297 297 296 296 297 298 299 299 299 298 299 299 299 299 299 299 299 299 299 299 298 298
295 295 295 295 295 295 295 295 295 296 296 296 296 296 296 296 297 297 297 296 296 295 295 294 295 295 296 296 296 296 297 297 297 297 297 297 297 297 297 297 297 296 296 296 297 298 298 299 298 298 298 299 299 299 299 299 299 299 299 299 298 298
294 294 294 294 294 294 294 295 295 295 295 295 296 296 296 296 296 296 296 296 295 294 294 294 294 295 295 295 295 296 296 296 296 296 296 296 296 296 296 296 296 296 296 296 297 297 298 298 297 298 298 299 299 299 299 299 299 299 299 298 298 298
294 294 293 293 294 293 294 294 294 294 295 295 295 296 296 296 296 296 296 295 294 294 293 293 294 294 294 294 295 295 295 295 295 295 296 296 296 296 296 296 296 296 296 296 297 297 297 297 297 297 298 299 299 298 298 298 298 298 298 298 298 298
293 293 293 293 293 293 293 293 293 294 294 295 295 295 295 295 295 295 295 294 293 293 293 292 293 293 293 294 294 294 294 295 295 295 295 295 296 296 296 296 296 297 297 297 297 296 296 296 298 299 298 298 298 298 297 297 297 297 297 298 298 298
293 292 292 292 292 292 293 293 293 293 294 294 295 295 295 295 295 295 294 293 293 292 292 292 292 292 293 293 293 293 294 294 294 294 294 295 295 295 296 296 296 297 297 297 297 297 297 297 299 299 298 297 297 297 297 297 296 297 297 297 297 297
292 291 291 292 292 292 293 293 293 293 294 294 294 294 294 294 295 294 293 293 292 291 291 291 291 292 292 292 293 293 293 293 293 293 294 294 294 295 295 296 296 296 296 297 297 297 297 298 298 299 298 298 298 297 297 296 296 296 296 297 297 297
291 291 291 292 292 292 292 292 292 293 293 293 293 294 294 294 294 294 293 292 291 291 291 291 291 291 291 292 292 292 293 293 292 293 293 293 293 294 294 295 295 295 296 296 296 297 297 297 298 298 298 297 297 297 297 297 296 295 295 296 296 296
290 290 290 291 291 291 291 292 292 292 292 292 293 293 293 293 293 293 292 291 291 290 290 290 291 291 291 291 291 292 292 292 292 291 292 292 292 293 293 294 294 294 295 295 296 296 296 297 297 297 297 297 297 296 297 296 296 295 295 295 295 295
288 288 288 289 289 289 290 290 291 291 291 292 292 292 293 293 292 292 291 290 290 290 290 290 290 291 291 291 291 291 291 291 291 291 291 291 291 291 292 292 293 293 294 295 295 295 296 296 296 296 296 296 296 296 296 296 296 295 294 294 294 294
286 286 286 286 287 287 288 288 289 290 291 291 291 292 291 291 290 290 289 289 289 289 290 290 290 290 290 290 290 289 289 289 289 289 290 290 290 290 291 291 292 293 293 294 294 295 295 295 295 296 296 296 296 296 296 295 294 293 293 293 294 294
284 284 284 285 285 286 286 287 288 289 289 289 289 289 289 288 288 288 288 288 288 289 289 289 289 289 289 288 288 288 288 288 288 288 289 289 289 290 290 291 291 292 293 293 294 294 294 295 295 296 296 296 296 296 296 294 293 292 293 293 293 294